User: anonymous   Login
Location: Kawakawa
(35.3830°S, 174.0670°E)
Time: 02:33:06
(UTC+13:00)
Language:

Cosmos 841 Rocket - Orbit

View from above orbital plane
View from above orbital plane
View from above satellite
View from above satellite

Ground track
Ground track

The orbit data is extracted from the following two-line orbital elements,

1  9023U 76069B   19315.86970285 -.00000017 +00000-0 +30518-5 0  9997
2  9023 074.0421 276.8168 0018608 228.3847 131.5714 14.39634526270834
Epoch (UTC): 11 November 2019 20:52:22
Eccentricity: 0.0018608
inclination: 74.0421°
perigee height: 746 km
apogee height: 773 km
right ascension of ascending node: 276.8168°
argument of perigee: 228.3847°
revolutions per day: 14.39634526
mean anomaly at epoch: 131.5714°
orbit number at epoch: 27083

The dashed part of the orbit path shows where the satellite is in the earth's shadow,  

DLR